GW7367 Weather Reports


time (UTC)temp
C
wind
direction
speed
KPH
gust
KPH
rain 1hr
cm
rain 24hr
cm
rain mn
cm
humidity
%
barometer
mb
20260510074908 13 317 0.0 0.0 0.00 0.00 0.00 77 1018.5
20260510073403 13 317 1.6 3.2 0.00 0.00 0.00 77 1018.5
20260510071858 13 317 0.0 4.8 0.00 0.00 0.00 78 1018.5
20260510070355 13 317 1.6 6.4 0.00 0.00 0.00 78 1018.5
20260510064855 14 310 6.4 12.9 0.00 0.00 0.00 74 1018.5
20260510063351 14 303 11.3 14.5 0.00 0.00 0.00 71 1018.5
20260510061850 14 305 9.7 14.5 0.00 0.00 0.00 75 1018.5
20260510060347 14 305 9.7 14.5 0.00 0.00 0.00 74 1018.5
20260510054842 15 299 11.3 14.5 0.00 0.00 0.00 72 1018.5
20260510053340 14 300 11.3 16.1 0.00 0.00 0.00 72 1018.5
20260510051835 15 297 8.0 17.7 0.00 0.00 0.00 73 1018.5
20260510050331 15 301 11.3 17.7 0.00 0.00 0.00 73 1018.5
20260510044828 15 306 6.4 14.5 0.00 0.00 0.00 73 1018.2
20260510043323 15 299 11.3 16.1 0.00 0.00 0.00 72 1018.2
20260510041819 15 303 11.3 16.1 0.00 0.00 0.00 72 1018.2
20260510040316 15 304 11.3 14.5 0.00 0.00 0.00 69 1018.2
20260510034815 15 298 8.0 16.1 0.00 0.00 0.00 69 1018.2
20260510033312 15 301 8.0 12.9 0.00 0.00 0.00 70 1018.5
20260510031807 16 308 8.0 14.5 0.00 0.00 0.00 68 1018.5
20260510030305 16 308 8.0 14.5 0.00 0.00 0.00 68 1018.5
20260510024802 16 318 12.9 16.1 0.00 0.00 0.00 63 1018.5
20260510023258 16 316 12.9 16.1 0.00 0.00 0.00 64 1018.5
20260510021754 16 322 9.7 14.5 0.00 0.00 0.00 65 1018.9
20260510020253 16 326 12.9 16.1 0.00 0.00 0.00 66 1018.9
20260510014753 16 323 14.5 17.7 0.00 0.00 0.00 65 1019.2
20260510013248 16 322 16.1 20.9 0.00 0.00 0.00 64 1019.2
20260510011749 17 322 16.1 22.5 0.00 0.00 0.00 64 1019.2
20260510010244 16 326 16.1 19.3 0.00 0.00 0.00 64 1019.5
20260510004741 17 320 16.1 20.9 0.00 0.00 0.00 62 1019.5
20260510003238 17 319 14.5 19.3 0.00 0.00 0.00 60 1019.5
20260510001736 17 321 12.9 19.3 0.00 0.00 0.00 59 1019.9
20260510000234 18 319 11.3 16.1 0.00 0.00 0.00 57 1019.9
20260509234729 18 326 12.9 16.1 0.00 0.00 0.00 56 1019.9
20260509233228 18 315 11.3 19.3 0.00 0.00 0.00 57 1020.2
20260509231723 18 315 8.0 14.5 0.00 0.00 0.00 56 1020.6
20260509230220 17 314 9.7 16.1 0.00 0.00 0.00 62 1020.9
20260509224719 17 310 11.3 16.1 0.00 0.00 0.00 63 1020.9
20260509223216 17 307 14.5 20.9 0.00 0.00 0.00 61 1021.2
20260509221716 17 310 11.3 16.1 0.00 0.00 0.00 64 1020.9
20260509220211 17 305 12.9 19.3 0.00 0.00 0.00 60 1021.2
20260509214707 16 308 11.3 16.1 0.00 0.00 0.00 62 1021.2
20260509213202 16 307 12.9 17.7 0.00 0.00 0.00 62 1021.2
20260509211658 16 308 12.9 17.7 0.00 0.00 0.00 64 1021.6
20260509210155 16 318 9.7 16.1 0.00 0.00 0.00 66 1021.6
20260509204652 16 333 8.0 12.9 0.00 0.00 0.00 68 1021.6
20260509203148 15 351 6.4 9.7 0.00 0.00 0.00 71 1021.9
20260509201645 15 330 6.4 11.3 0.00 0.00 0.00 72 1022.3
20260509200145 15 327 4.8 9.7 0.00 0.00 0.00 75 1022.3
20260509194642 15 327 6.4 9.7 0.00 0.00 0.00 77 1022.6
20260509193137 13 330 9.7 14.5 0.00 0.00 0.00 79 1022.9
20260509191635 13 332 9.7 12.9 0.00 0.00 0.00 79 1022.9
20260509190132 13 316 11.3 14.5 0.00 0.00 0.00 79 1022.9
20260509184629 13 315 11.3 14.5 0.00 0.00 0.00 79 1023.3
20260509183129 13 319 9.7 12.9 0.00 0.00 0.00 80 1023.3
20260509181625 13 337 8.0 11.3 0.00 0.00 0.00 83 1023.3
20260509180121 12 337 9.7 12.9 0.00 0.00 0.00 84 1023.3
20260509174622 12 337 11.3 16.1 0.00 0.00 0.00 84 1023.6
20260509173120 12 318 11.3 16.1 0.00 0.00 0.00 84 1023.6
20260509171620 12 350 9.7 11.3 0.00 0.00 0.00 85 1023.6
20260509170115 12 346 8.0 11.3 0.00 0.00 0.00 85 1023.9
20260509164611 12 324 9.7 11.3 0.00 0.00 0.00 85 1023.9
20260509163106 11 327 8.0 11.3 0.00 0.00 0.00 85 1023.9
20260509161602 11 331 8.0 12.9 0.00 0.00 0.00 86 1024.3
20260509160059 11 319 8.0 11.3 0.00 0.00 0.00 86 1024.3
20260509154554 11 314 8.0 11.3 0.00 0.00 0.00 86 1024.3
20260509153051 11 312 4.8 8.0 0.00 0.00 0.00 86 1024.3
20260509151546 11 312 6.4 8.0 0.00 0.00 0.00 86 1024.6
20260509150046 11 313 6.4 9.7 0.00 0.00 0.00 86 1025.0
20260509144546 11 315 4.8 8.0 0.00 0.00 0.00 87 1025.0
20260509143043 11 315 4.8 6.4 0.00 0.00 0.00 87 1025.0
20260509141542 11 315 3.2 6.4 0.00 0.00 0.00 87 1025.0
20260509140040 11 315 3.2 4.8 0.00 0.00 0.00 89 1025.0
20260509134537 10 315 1.6 3.2 0.00 0.00 0.00 90 1025.0
20260509133035 10 315 3.2 4.8 0.00 0.00 0.00 91 1025.0
20260509131533 10 315 3.2 3.2 0.00 0.00 0.00 91 1025.0
20260509130029 10 315 3.2 6.4 0.00 0.00 0.00 92 1025.0
20260509124524 10 315 4.8 6.4 0.00 0.00 0.00 92 1025.0
20260509123021 10 315 3.2 8.0 0.00 0.00 0.00 89 1025.0
20260509121517 10 315 4.8 9.7 0.00 0.00 0.00 89 1025.0
20260509120017 10 302 6.4 11.3 0.00 0.00 0.00 90 1025.0
20260509114515 10 295 6.4 9.7 0.00 0.00 0.00 90 1025.0
20260509113015 11 228 0.0 6.4 0.00 0.00 0.00 87 1025.0
20260509111511 11 225 0.0 4.8 0.00 0.00 0.00 85 1025.3
20260509110007 11 225 4.8 6.4 0.00 0.00 0.00 83 1025.3
20260509104505 11 194 1.6 6.4 0.00 0.00 0.00 82 1025.3
20260509103004 12 144 1.6 6.4 0.00 0.00 0.00 82 1025.3
20260509101459 11 180 3.2 9.7 0.00 0.00 0.00 82 1025.3
20260509095956 11 182 3.2 9.7 0.00 0.00 0.00 82 1025.6
20260509094452 12 201 4.8 11.3 0.00 0.00 0.00 81 1025.6
20260509092951 12 201 6.4 16.1 0.00 0.00 0.00 80 1025.6
20260509091449 12 202 6.4 12.9 0.00 0.00 0.00 80 1025.6
20260509085947 12 207 6.4 14.5 0.00 0.00 0.00 79 1025.6
20260509084443 12 208 6.4 16.1 0.00 0.00 0.00 79 1025.6
20260509082940 12 205 6.4 14.5 0.00 0.00 0.00 78 1025.6
20260509081438 12 208 4.8 9.7 0.00 0.00 0.00 78 1025.6
20260509075936 12 202 6.4 12.9 0.00 0.00 0.00 78 1025.6